Terug naar catalogus

DELTA 1 DEB

ActiefSSO
NORAD 12217·DEBRIS·🇺🇸 United States

Gelanceerd Mar 5, 1978 vanaf Vandenberg Space Force Base

Loading…

Volgende Passages (komende 24 uur)

TLE

VersSource: Space-Track

Epoch: Sep 14, 2026, 00:12 UTC

1 12217U 78026BJ  26257.00875128  .00000449  00000-0  21375-3 0  9997
2 12217  98.9380 283.7999 0019323 247.6027 141.2980 14.24352336353048

Volg DELTA 1 DEB in realtime met AllMySat

Download on the App Store